Regional Weather Roundup
Issued by NWS Jackson, KY

Home | Current Version | Previous Version | Graphics & Text | Print | Product List | Glossary On
Versions: 1 2 3 4 5 6 7 8 9 10 11 12 13 14 15 16 17 18 19 20 21 22 23 24 25 26 27 28 29 30 31 32 33 34 35 36 37 38 39 40 41 42 43 44 45 46 47 48 49 50
000
ASUS43 KJKL 250610
RWRJKL

EAST KENTUCKY HOURLY WEATHER ROUNDUP
NATIONAL WEATHER SERVICE JACKSON KY
100 AM EST SAT FEB 25 2017

NOTE: "FAIR" INDICATES FEW OR NO CLOUDS BELOW 12,000 FEET WITH
NO SIGNIFICANT WEATHER AND/OR OBSTRUCTIONS TO VISIBILITY.

* THESE REPORTS ARE NOT UNDER NWS QUALITY CONTROL AND MAY NOT
  REPORT WEATHER SUCH AS PRECIPITATION AND FOG.

KYZ079-080-083-085-087-088-110-112-115-119-120-250700
...EASTERN KENTUCKY...

CITY           SKY/WX    TMP DP  RH WIND       PRES   REMARKS
JACKSON        CLOUDY    65  52  62 W14G23    29.65R
6HR MIN TEMP:  65; 6HR MAX TEMP:  72;

LONDON         TSTM      57  53  86 NW10      29.62F
6HR MIN TEMP:  57; 6HR MAX TEMP:  71; 6HR PCP:  0.07;

SOMERSET*      TSTM      55  55 100 W8        29.70R
MONTICELLO*    RAIN      58  56  93 W14       29.70R
6HR MIN TEMP:  57; 6HR MAX TEMP:  72;

WILLIAMSBURG*  CLOUDY    59  55  88 W7G38     29.64S
MIDDLESBORO*   CLOUDY    68  52  56 S8        29.67F
6HR MIN TEMP:  67; 6HR MAX TEMP:  72;

HARLAN APT*    CLOUDY    68  46  45 S5        29.67S
PIKE CO APT*   MOCLDY    65  50  57 S9G16     29.64S
BIG SANDY APT* MOCLDY    67  50  55 S8        29.62S
6HR MIN TEMP:  67; 6HR MAX TEMP:  73;

MOREHEAD APT*  LGT RAIN  59  55  88 SW10      29.65R
ASHLAND*       CLOUDY    63  52  67 NW13G24   29.58R
$$

KYZ035-036-041-042-044-050-067-078-099-250700
...CENTRAL KENTUCKY...

CITY           SKY/WX    TMP DP  RH WIND       PRES   REMARKS
FLEMING/MASON* RAIN      58  56  93 SW10G16   29.63R
DANVILLE*      LGT RAIN  52  45  76 NW16G26   29.69R
LEXINGTON      LGT RAIN  54  42  64 NW15G23   29.66R
6HR MIN TEMP:  54; 6HR MAX TEMP:  72; 6HR PCP:  0.42;

FRANKFORT      CLOUDY    54  37  52 NW10      29.65R
6HR MIN TEMP:  54; 6HR MAX TEMP:  74; 6HR PCP:  0.15;

LOUISVILLE     CLOUDY    53  41  63 W9        29.67R
6HR MIN TEMP:  53; 6HR MAX TEMP:  66; 6HR PCP:  0.29;

LEBANON*       MOCLDY    54  39  58 W3        29.68R
GLASGOW*       CLOUDY    56  37  49 NW13G22   29.70R
BOWLING GREEN  CLOUDY    56  40  55 NW7       29.73R
6HR MIN TEMP:  56; 6HR MAX TEMP:  73; 6HR PCP: TRACE;

$$

KYZ091>093-OHZ055-061-077-WVZ005-015-034-035-042-250700
...SOUTHERN OHIO/WEST VIRGINIA...

CITY           SKY/WX    TMP DP  RH WIND       PRES   REMARKS
COVINGTON      MOCLDY    50  42  74 NW13      29.64R
COLUMBUS       RAIN      56  52  86 NW14      29.56S FOG
DAYTON         CLOUDY    48  43  82 NW14      29.62R
WILMINGTON     CLOUDY    52  44  74 W16       29.60R
HUNTINGTON     MOCLDY    70  48  45 S12       29.57F THUNDER
CHARLESTON     MOCLDY    67  49  52 S9        29.61F
PINEVILLE*     CLEAR     55  47  75 MISG      29.74S
BECKLEY        PTCLDY    58  48  69 SE12      29.72F
BLUEFIELD      PTCLDY    57  47  69 VRB3      29.74F
LOGAN CO APT*    N/A     66  50  55 S12G20    29.65S
$$

VAZ002-007-008-TNZ017-027-036-066-071-250700
...SOUTHWEST VIRGINIA/EAST TENNESSEE...

CITY           SKY/WX    TMP DP  RH WIND       PRES   REMARKS
WISE*          MOCLDY    61  46  59 S8        29.73R
JONESVILLE*    MOCLDY    64  50  59 SE5       29.70F
ABINGDON*      CLEAR     61  48  64 SW3       29.73S
BRISTOL        PTCLDY    64  50  60 S8        29.71F
MORRISTOWN*    MOCLDY    64  50  59 CALM      29.68S
SEVIERVILLE*   MOCLDY    70  48  46 S6        29.67F
KNOXVILLE      CLOUDY    70  50  49 S17       29.64F
LAFOLLETTE*    CLOUDY    63  55  77 SW8G17    29.69S
OAK RIDGE      LGT RAIN  65  56  72 W8G20     29.67F
CROSSVILLE     TSTM      58  53  84 W14       29.70S
NASHVILLE      CLOUDY    63  42  46 NW12G20   29.72R
$$

...KEY TO REMARKS...
VSB - VISIBILITY IN MILES
WCI - WIND CHILL INDEX
HX  - HEAT INDEX

$$



USA.gov is the U.S. government's official web portal to all federal, state and local government web resources and services.